Showing default

VELOX 1, 40057

Orbit data source: Space-Track

VELOX 1, 40057 is a payload satellite owned by NTU (SG) in SSO that was launched on Mon, 30 Jun 2014 UTC via a PSLV launch vehicle from the Sirharikota (SRI). Payload-class satellites include a variety of spacecraft equipped with specific instruments for various scientific and technological missions. These include communications satellites like Starlink; space stations such as the ISS; scientific satellites like the Hubble; Earth observation satellites from companies like Planet Labs, Umbra, and HawkEye 360; GPS; miniature CubeSats for education and research; and military/defense satellites.

Loading next visibility...
Identifier
40057, 2014-034E
Orbit
SSO
Country
Flag of UnknownUnknown / SING
Related business
Manufacturer
NTU
Mission
Non-operational Amateur Technology
Bus & Motor
CUBESAT 3U, Unknown motor
Mass
4.25 kg wet, 4.25 kg dry
Launch date (UTC)
2014-06-30 (12 years ago)
Launch vehicle
PSLV
Launch site
Sirharikota (SRI)
Object type
Payload
Rocket body
Debris
Shape & HBR
Box + 4 Pan, 0.2 m
Radar Cross Section
0.092 m², Medium (>0.1 m² and < 1m²)

Expand to show TLE details & history
Last TLE update: 4 hours ago

TLE from 4 hours ago
0 VELOX 1
1 40057U 14034E   26038.20545907  .00007588  00000-0  67342-3 0  9992
2 40057  98.2670 295.8943 0007627 355.5808   4.5343 14.96464533627151
Epoch: 2026-02-07T04:55Z
TLE epoch observation values (Epoch: 2026-02-07T04:55:51.663Z)
Latitude
-0.00005°
Longitude
84.59672°
Altitude
575.573 km
Speed
7.576 km/s
True Right ascension
19h 43m 34s
True Declination
0° 00' 00"
Sunlit
Object was in daylight at epoch
Visualization orbit readout
Latitude
Unknown
Longitude
Unknown
Altitude
Unknown
Speed
Unknown
Apparent Right ascension
Unknown
Apparent Declination
Unknown
Sunlit
N/A
Visualization observer readout
Local Sidereal Time
11:13:37
Azimuth
Unknown
Elevation
Unknown
Doppler factor
Unknown
Orbital elements
Apogee altitude
580.17 km
Perigee altitude
569.563 km
Semi-major axis
6,953.004 km
Eccentricity
0.00076
Inclination
98.267°
RAAN
295.8943°
Arg. of periapsis
355.5808°
True anomaly
4.54122°
Mean anomaly
4.5343°
Eccentric anomaly
4.53776°
Mean motion
3.74356 °/min
Orbital period
96.17 mins
BSTAR
0.00067342
Loading maneuver chart data...
Computing Atmospheric mass density...
Loading historical data...
Loading historical data...
Loading historical data...
Loading historical data...
Loading historical data...
Loading historical data...
Loading historical data...
Other satellites on launch #34 in the year 2014 (2014-06-30 UTC)

Documentation

Showing up to 5 results
|